[[{"header":{"parameterUnit":"m.s-1","parameterCategory":1,"la1":30.2991,"la2":30.254,"lo1":-89.0895,"lo2":-89.0444,"dy":0.0017,"dx":0.0017,"nx":28,"ny":28,"refTime":"2025-11-28T09:00:00:Z","depth":0,"parameterNumber":2,"parameterNumberName":"U-component_of_WINDS"},"data":[0,0,0,0,0,0,0,0,0,0,0,0,0,0,0,0,0,0,0,0,0,0,0,0,0,0,0,0,0,0,0,0,0,0,0,0,0,0,0,0,0,0,0,0,0,0,0,0,0,0,0,0,0,0,0,0,0,0,-0.8727,-0.8728,0,-0.8792,-0.8793,-0.8793,-0.8744,-0.8742,-0.874,-0.8738,-0.8806,-0.881,-0.8813,0,0,0,0,0,0,0,0,0,0,0,0,0,-0.8562,-0.8565,-0.8727,-0.8728,-0.8729,-0.8792,-0.8793,-0.8794,-0.8744,-0.8742,-0.8739,-0.8737,-0.8805,-0.8809,-0.8814,0,0,0,0,0,0,0,0,0,0,0,0,0,-0.8631,-0.8566,-0.8727,-0.8712,-0.8711,-0.8792,-0.8793,-0.8794,-0.8745,-0.8742,-0.8738,-0.8735,-0.8803,-0.8809,-0.8814,-0.8914,0,0,-0.8832,-0.8834,0,0,0,0,0,0,0,0,-0.8627,-0.8637,-0.8713,-0.8713,-0.8712,-0.8757,-0.8759,-0.8834,-0.8746,-0.8732,-0.8738,-0.8734,-0.8792,-0.8799,-0.8818,-0.8917,-0.892,-0.8832,-0.8836,-0.8838,-0.884,0,0,0,0,0,0,0,-0.8622,-0.8634,-0.8753,-0.8714,-0.8714,-0.8702,-0.8708,-0.8773,-0.878,-0.8733,-0.873,-0.8738,-0.8791,-0.8812,-0.8819,-0.8921,-0.8832,-0.8837,-0.8841,-0.8843,-0.9106,-0.911,0,0,0,0,0,0,-0.8619,-0.863,-0.8751,-0.8755,-0.8661,-0.8708,-0.8715,-0.8746,-0.8779,-0.8781,-0.8741,-0.8735,-0.8804,-0.8812,-0.8821,-0.8942,-0.8838,-0.8844,-0.8847,-0.9103,-0.9107,-0.9111,0,0,0,0,0,0,-0.8615,-0.863,-0.8748,-0.8692,-0.8706,-0.8714,-0.8749,-0.8749,-0.877,-0.8784,-0.8785,-0.8761,-0.8802,-0.8813,-0.8891,-0.8943,-0.8846,-0.8851,-0.9099,-0.9104,-0.9109,-0.9183,0,0,0,0,0,0,-0.8611,-0.8629,-0.8667,-0.8693,-0.8709,-0.8817,-0.8752,-0.8752,-0.878,-0.8773,-0.8804,-0.8806,-0.88,-0.8883,-0.8897,-0.895,-0.8856,-0.9094,-0.9101,-0.9107,-0.9176,-0.919,-0.9202,0,0,0,0,0,-0.8605,-0.8686,-0.8669,-0.8684,-0.8757,-0.882,-0.883,-0.8822,-0.8784,-0.8823,-0.8832,-0.8805,-0.8935,-0.8892,-0.8907,-0.8962,-0.9091,-0.9099,-0.9107,-0.917,-0.9187,-0.9202,0,0,0,0,0,0,-0.8667,-0.8689,-0.8671,-0.8762,-0.879,-0.8812,-0.8861,-0.884,-0.8879,-0.8872,-0.886,-0.8868,-0.895,-0.8963,-0.8915,-0.906,-0.9007,-0.9018,-0.905,-0.9066,-0.9079,-0.9076,-0.8861,0,0,0,0,0,-0.869,-0.874,-0.8757,-0.8835,-0.885,-0.8853,-0.888,-0.8871,-0.89,-0.8912,-0.8926,-0.8956,-0.9003,-0.9035,-0.9079,-0.9176,-0.9183,-0.9221,-0.9234,-0.9245,-0.9256,-0.931,-0.9328,-0.9137,-0.9137,-0.9137,0,0,-0.8741,-0.8759,-0.8791,-0.8848,-0.8869,-0.8921,-0.8863,-0.8921,-0.896,-0.892,-0.8996,-0.9007,-0.9039,-0.9128,-0.9167,-0.9141,-0.931,-0.9255,-0.9264,-0.9269,-0.932,-0.9338,-0.9354,-0.9143,-0.9142,-0.9141,0,0,-0.8861,-0.8878,-0.8947,-0.8968,-0.8999,-0.9,-0.9016,-0.9042,-0.9048,-0.9123,-0.9094,-0.914,-0.9222,-0.9246,-0.9269,-0.9395,-0.9373,-0.941,-0.948,-0.9532,-0.9547,-0.9561,-0.9608,-0.9625,-0.942,-0.942,-0.942,0,-0.892,-0.8998,-0.8984,-0.9044,-0.9071,-0.9036,-0.9105,-0.9126,-0.9171,-0.919,-0.9159,-0.9261,-0.9279,-0.9374,-0.9405,-0.9423,-0.9443,-0.9408,-0.9546,-0.9559,-0.9572,-0.9617,-0.9634,-0.9425,-0.9424,-0.9424,-0.9423,0,-0.907,-0.9124,-0.9175,-0.9219,-0.925,-0.9315,-0.9312,-0.9345,-0.9332,-0.9337,-0.9414,-0.9434,-0.9483,-0.9503,-0.9492,-0.9597,-0.9579,-0.9547,-0.9494,-0.9595,-0.9637,-0.9654,-0.9431,-0.943,-0.9428,-0.9427,0,0,-0.9233,-0.9267,-0.9287,-0.9306,-0.9337,-0.9379,-0.9441,-0.9488,-0.9518,-0.9548,-0.9602,-0.9671,-0.9641,-0.9667,-0.9658,-0.9703,-0.9805,-0.9666,-0.9666,-0.9693,-0.9923,-0.995,-0.997,-0.9788,-0.9791,-0.9794,-0.9921,0,-0.9356,-0.9466,-0.9455,-0.9559,-0.961,-0.9576,-0.963,-0.9656,-0.9661,-0.9704,-0.9709,-0.976,-0.9716,-0.9731,-0.9775,-0.9783,-0.9851,-0.9773,-0.984,-0.9842,-0.9837,-0.9991,-1.002,-1.0139,-0.9938,-0.994,-0.9942,0,-0.9516,-0.9552,-0.9661,-0.9685,-0.9705,-0.9755,-0.9797,-0.9838,-0.9866,-0.9866,-0.9895,-0.9877,-0.994,-0.9882,-0.997,-0.9918,-0.9943,-0.9951,-0.9956,-0.9965,-0.9901,-1.0008,-1.0177,-1.0196,-0.9968,-0.9966,-0.9964,0,-0.9628,-0.9703,-0.9779,-0.9796,-0.9824,-0.986,-0.9874,-0.9898,-0.9927,-0.9963,-0.9981,-1.0024,-1.0049,-1.0082,-1.0077,-1.0035,-1.0167,-1.0108,-1.0171,-1.0171,-1.0204,-1.0202,-1.0383,-1.0214,-1.0214,-1.0214,-1.0213,0,-0.9768,-0.9837,-0.983,-0.9877,-0.9953,-0.9939,-1.0014,-1.0023,-1.0045,-1.0093,-1.0065,-1.0111,-1.0099,-1.0145,-1.0141,-1.0215,-1.0225,-1.0229,-1.0228,-1.0234,-1.0234,-1.0253,-1.0246,-1.0219,-1.0218,-1.0217,-1.0216,0,-0.9908,-0.9905,-0.9986,-1.0005,-1.0012,-1.0067,-1.0084,-1.0129,-1.013,-1.0192,-1.0205,-1.0208,-1.026,-1.0257,-1.0316,-1.0313,-1.0406,-1.0393,-1.0397,-1.0395,-1.0459,-1.0454,-1.0661,-1.0689,-1.05,-1.0501,-1.0503,0,-1.0,-1.0052,-1.0077,-1.0107,-1.0123,-1.0172,-1.0201,-1.0188,-1.0219,-1.0254,-1.0295,-1.0344,-1.0383,-1.0468,-1.0476,-1.052,-1.0511,-1.058,-1.0517,-1.0522,-1.0515,-1.0514,-1.052,-1.0594,-1.0596,-1.0597,-1.0599,0,-1.0164,-1.016,-1.0203,-1.0245,-1.028,-1.0313,-1.0342,-1.0368,-1.0359,-1.0395,-1.0448,-1.0478,-1.0538,-1.0588,-1.063,-1.0644,-1.0621,-1.0617,-1.0635,-1.0644,-1.0645,-1.0648,-1.0434,-1.0614,-1.0612,-1.0611,-1.0611,-1.061,-1.0285,-1.033,-1.0355,-1.0403,-1.0424,-1.0452,-1.0495,-1.0501,-1.0545,-1.0593,-1.0582,-1.0642,-1.0667,-1.0722,-1.0739,-1.0786,-1.0762,-1.0786,-1.0793,-1.08,-1.0809,-1.0634,-1.0793,-1.0793,-1.0792,-1.0792,-1.0792,0,-1.0451,-1.0464,-1.0509,-1.0551,-1.0589,-1.0561,-1.0592,-1.0627,-1.0679,-1.0705,-1.0743,-1.0804,-1.0852,-1.0862,-1.0908,-1.0944,-1.0934,-1.0957,-1.0956,-1.096,-1.0827,-1.0809,-1.0964,-1.0964,-1.0964,-1.0963,-1.0963,-1.0963,-1.0542,-1.0618,-1.0616,-1.0701,-1.0714,-1.0773,-1.0793,-1.0819,-1.0839,-1.0908,-1.0948,-1.0953,-1.0973,-1.102,-1.1063,-1.1064,-1.1084,-1.1111,-1.1109,-1.0986,-1.0969,-1.0953,-1.0936,-1.1115,-1.1115,-1.1239,-1.124,-1.1241]},{"header":{"parameterUnit":"m.s-1","parameterCategory":1,"la1":30.2991,"la2":30.254,"lo1":-89.0895,"lo2":-89.0444,"dy":0.0017,"dx":0.0017,"nx":28,"ny":28,"refTime":"2025-11-28T09:00:00:Z","depth":0,"parameterNumber":3,"parameterNumberName":"V-component_of_WINDS"},"data":[0,0,0,0,0,0,0,0,0,0,0,0,0,0,0,0,0,0,0,0,0,0,0,0,0,0,0,0,0,0,0,0,0,0,0,0,0,0,0,0,0,0,0,0,0,0,0,0,0,0,0,0,0,0,0,0,0,0,-6.8889,-6.8891,0,-6.9045,-6.9047,-6.9049,-6.8954,-6.8949,-6.8945,-6.8941,-6.9093,-6.9101,-6.9109,0,0,0,0,0,0,0,0,0,0,0,0,0,-6.8502,-6.851,-6.8889,-6.8891,-6.8893,-6.9045,-6.9047,-6.9049,-6.8955,-6.8949,-6.8944,-6.8939,-6.909,-6.91,-6.911,0,0,0,0,0,0,0,0,0,0,0,0,0,-6.8665,-6.8512,-6.8889,-6.8864,-6.8864,-6.9045,-6.9047,-6.905,-6.8956,-6.8949,-6.8942,-6.8936,-6.9087,-6.9099,-6.9111,-6.9323,0,0,-6.9149,-6.9155,0,0,0,0,0,0,0,0,-6.8656,-6.8679,-6.8866,-6.8866,-6.8866,-6.8973,-6.8967,-6.9141,-6.8957,-6.8921,-6.894,-6.8933,-6.9058,-6.9073,-6.9116,-6.933,-6.9337,-6.915,-6.9158,-6.9163,-6.9167,0,0,0,0,0,0,0,-6.8645,-6.8672,-6.8951,-6.8869,-6.8869,-6.8843,-6.8859,-6.8999,-6.9025,-6.8923,-6.8917,-6.8937,-6.9057,-6.9105,-6.9119,-6.9339,-6.915,-6.9161,-6.9169,-6.9173,-6.9734,-6.9741,0,0,0,0,0,0,-6.8636,-6.8663,-6.8946,-6.8955,-6.8743,-6.8856,-6.8873,-6.8946,-6.9023,-6.9029,-6.8943,-6.8932,-6.9087,-6.9105,-6.9124,-6.9378,-6.9163,-6.9175,-6.9182,-6.9726,-6.9736,-6.9744,0,0,0,0,0,0,-6.8628,-6.8663,-6.8939,-6.8808,-6.8841,-6.887,-6.8952,-6.8952,-6.9,-6.9038,-6.9041,-6.8987,-6.9082,-6.9107,-6.9275,-6.9382,-6.918,-6.9192,-6.9718,-6.9729,-6.974,-6.9886,0,0,0,0,0,0,-6.8618,-6.866,-6.8743,-6.8811,-6.8849,-6.909,-6.8958,-6.896,-6.9023,-6.901,-6.9081,-6.9086,-6.9079,-6.9257,-6.9287,-6.9395,-6.9201,-6.9708,-6.9723,-6.9736,-6.9872,-6.9901,-6.9926,0,0,0,0,0,-6.8604,-6.8776,-6.8747,-6.8782,-6.8953,-6.9096,-6.9118,-6.9108,-6.9032,-6.9114,-6.9138,-6.9084,-6.9365,-6.9275,-6.9308,-6.9421,-6.9701,-6.9719,-6.9735,-6.986,-6.9895,-6.9925,0,0,0,0,0,0,-6.8717,-6.8784,-6.8753,-6.8953,-6.902,-6.908,-6.9183,-6.9146,-6.9235,-6.9219,-6.9201,-6.9218,-6.9393,-6.9423,-6.9322,-6.963,-6.9521,-6.9545,-6.9604,-6.9638,-6.9665,-6.9654,-6.9211,0,0,0,0,0,-6.8766,-6.8879,-6.8931,-6.9101,-6.9137,-6.9155,-6.9217,-6.9204,-6.9272,-6.9299,-6.9336,-6.9402,-6.9505,-6.9573,-6.967,-6.9875,-6.9889,-6.9969,-6.9996,-7.0018,-7.004,-7.0151,-7.0187,-6.9799,-6.9799,-6.9798,0,0,-6.8866,-6.8917,-6.8989,-6.9126,-6.9176,-6.9292,-6.9179,-6.9307,-6.9392,-6.9317,-6.948,-6.9509,-6.9581,-6.9769,-6.9853,-6.98,-7.015,-7.004,-7.0057,-7.0066,-7.0172,-7.0208,-7.0241,-6.981,-6.9808,-6.9806,0,0,-6.9109,-6.9159,-6.9308,-6.9361,-6.944,-6.9451,-6.9487,-6.9553,-6.9571,-6.9734,-6.968,-6.978,-6.9958,-7.0012,-7.0063,-7.0327,-7.028,-7.0359,-7.0499,-7.0608,-7.0639,-7.0666,-7.076,-7.0794,-7.0379,-7.038,-7.038,0,-6.9223,-6.9399,-6.9388,-6.952,-6.9581,-6.9522,-6.9671,-6.9722,-6.9828,-6.9871,-6.9809,-7.0032,-7.0076,-7.0277,-7.0341,-7.0384,-7.0423,-7.0351,-7.0636,-7.0662,-7.0687,-7.0777,-7.0813,-7.0389,-7.0388,-7.0387,-7.0386,0,-6.9536,-6.9658,-6.9768,-6.9875,-6.9948,-7.0088,-7.0096,-7.0171,-7.0151,-7.0168,-7.0334,-7.0385,-7.0492,-7.0538,-7.0519,-7.0736,-7.07,-7.0638,-7.0527,-7.0734,-7.0818,-7.0852,-7.0402,-7.0399,-7.0396,-7.0394,0,0,-6.9854,-6.9954,-6.9995,-7.0043,-7.0126,-7.0219,-7.0355,-7.0462,-7.0527,-7.0601,-7.0715,-7.0867,-7.0811,-7.0868,-7.0855,-7.095,-7.1156,-7.0876,-7.0877,-7.0926,-7.1398,-7.1445,-7.1485,-7.1126,-7.1132,-7.1137,-7.1392,0,-7.0102,-7.0344,-7.0338,-7.0562,-7.0675,-7.062,-7.0738,-7.0801,-7.082,-7.0917,-7.0936,-7.1045,-7.0962,-7.0996,-7.1088,-7.1112,-7.1251,-7.1093,-7.123,-7.1235,-7.1214,-7.1529,-7.1579,-7.1817,-7.1425,-7.143,-7.1434,0,-7.0425,-7.0514,-7.075,-7.0817,-7.0864,-7.0971,-7.1069,-7.1162,-7.1232,-7.1238,-7.1304,-7.1276,-7.1412,-7.1298,-7.1485,-7.1378,-7.1433,-7.1453,-7.1462,-7.1475,-7.1348,-7.1551,-7.1893,-7.1929,-7.1486,-7.1482,-7.1478,0,-7.0634,-7.0812,-7.0977,-7.1019,-7.1102,-7.1179,-7.1216,-7.1279,-7.1344,-7.1428,-7.147,-7.1568,-7.1622,-7.1697,-7.1695,-7.1613,-7.1885,-7.1771,-7.1893,-7.1894,-7.1953,-7.195,-7.231,-7.1988,-7.1988,-7.1987,-7.1986,0,-7.0913,-7.1059,-7.1072,-7.1174,-7.1336,-7.1326,-7.1486,-7.1515,-7.1572,-7.1676,-7.1634,-7.1732,-7.1723,-7.1822,-7.1821,-7.1976,-7.2,-7.2008,-7.2006,-7.2013,-7.2012,-7.2049,-7.2032,-7.1997,-7.1995,-7.1993,-7.1991,0,-7.1174,-7.1189,-7.1365,-7.1429,-7.1449,-7.1566,-7.1619,-7.1714,-7.173,-7.1863,-7.1893,-7.1917,-7.2031,-7.2037,-7.2167,-7.2166,-7.2355,-7.2334,-7.2333,-7.2329,-7.2452,-7.2441,-7.2849,-7.2902,-7.2545,-7.2549,-7.2552,0,-7.1351,-7.1463,-7.1541,-7.1609,-7.1652,-7.1762,-7.1829,-7.1823,-7.1894,-7.1982,-7.2066,-7.2177,-7.2265,-7.2449,-7.2477,-7.2576,-7.2558,-7.2694,-7.2572,-7.2575,-7.256,-7.2554,-7.2565,-7.2717,-7.2721,-7.2725,-7.2727,0,-7.1664,-7.1667,-7.1766,-7.1869,-7.195,-7.203,-7.2104,-7.2161,-7.2164,-7.2245,-7.2363,-7.2432,-7.2567,-7.2677,-7.2774,-7.2809,-7.2769,-7.2766,-7.2799,-7.2807,-7.2802,-7.2807,-7.2398,-7.2756,-7.2753,-7.2751,-7.275,-7.2748,-7.1889,-7.1987,-7.2057,-7.2169,-7.2225,-7.2295,-7.2389,-7.2417,-7.2516,-7.2627,-7.2616,-7.2747,-7.2812,-7.2939,-7.2983,-7.3083,-7.3036,-7.3085,-7.3097,-7.311,-7.3123,-7.2786,-7.3101,-7.31,-7.3099,-7.3098,-7.3098,0,-7.2201,-7.2244,-7.2347,-7.2454,-7.2542,-7.2499,-7.2578,-7.2654,-7.2771,-7.2836,-7.2925,-7.306,-7.3166,-7.3203,-7.3306,-7.3379,-7.3363,-7.3406,-7.3401,-7.341,-7.3159,-7.312,-7.3418,-7.3418,-7.3418,-7.3417,-7.3417,-7.3417,-7.2373,-7.2536,-7.2547,-7.2736,-7.2777,-7.2907,-7.2956,-7.302,-7.3073,-7.3227,-7.3316,-7.334,-7.3394,-7.3501,-7.3596,-7.3603,-7.3643,-7.3695,-7.3695,-7.346,-7.3427,-7.3397,-7.336,-7.3703,-7.3704,-7.3937,-7.3939,-7.3941]}]]